Weather History for Midland Airpark, TX

Change the Weather History Date:

Thursday, November 8, 2012

  Actual Average (KMAF) Record (KMAF)
Temperature  
Mean Temperature 74 °F 56 °F  
Max Temperature 86 °F 70 °F 89 °F (1988)
Min Temperature 61 °F 42 °F 22 °F (1938)
Degree Days  
Heating Degree Days 0 9  
Month to date heating degree days 64  
Since 1 July heating degree days 173  
Cooling Degree Days 8    
Growing Degree Days 24 (Base 50)    
Moisture  
Dew Point 48 °F    
Average Humidity 47    
Maximum Humidity 72    
Minimum Humidity 17    
Precipitation  
Precipitation 0.00 in 0.02 in 0.33 in (1937)
Month to date precipitation 0.21  
Year to date precipitation 13.52  
Snow  
Snow 0.00 in - - ()
Month to date snowfall  
Since 1 July snowfall  
Since 1 September snowfall  
Snow Depth -    
Sea Level Pressure  
Sea Level Pressure 29.99 in    
Wind  
Wind Speed 12 mph (South)    
Max Wind Speed 17 mph    
Max Gust Speed 23 mph    
Visibility 10 miles    
Events      
T = Trace of Precipitation, MM = Missing Value Source: NWS Daily Summary

Daily Weather History Graph

Daily Weather History Graph

Search for Another Location

Airport:

Trip Planner

Search our weather history database for the weather conditions in past years. The results will help you decide how hot, cold, wet, or windy it might be!

Date:

Astronomy

Nov. 08, 2012 Rise Set
Actual Time 7:11 AM CST 5:52 PM CST
Civil Twilight 6:45 AM CST 6:18 PM CST
Nautical Twilight 6:16 AM CST 6:47 PM CST
Astronomical Twilight 5:47 AM CST 7:16 PM CST
Moon 1:29 AM CST (11/8) 2:16 PM CST (11/8)
Length of Visible Light 11h 32m
Length of Day
10h 41m
Waning Crescent, 32% of the Moon is Illuminated
Nov 8
Waning Crescent
Nov 13
New
Nov 20
First Quarter
Nov 28
Full
Dec 6
Last Quarter

Hourly Weather History & Observations

Time (CST) Temp. Dew Point Humidity Pressure Visibility Wind Dir Wind Speed Gust Speed Precip Events Conditions
12:15 AM 65.3 °F 51.8 °F 62% 30.03 in 10.0 mi South 12.7 mph 16.1 mph N/A   Clear
12:35 AM 65.3 °F 51.8 °F 62% 30.03 in 10.0 mi South 12.7 mph - N/A   Clear
12:55 AM 65.3 °F 52.0 °F 62% 30.03 in 10.0 mi South 13.8 mph - N/A   Clear
1:15 AM 65.3 °F 52.0 °F 62% 30.03 in 10.0 mi South 12.7 mph - N/A   Clear
1:35 AM 64.8 °F 52.0 °F 63% 30.03 in 10.0 mi South 12.7 mph - N/A   Clear
1:55 AM 64.8 °F 51.8 °F 63% 30.03 in 10.0 mi South 12.7 mph - N/A   Clear
2:15 AM 64.6 °F 51.8 °F 63% 30.02 in 10.0 mi South 10.4 mph - N/A   Clear
2:35 AM 63.9 °F 51.8 °F 65% 30.02 in 10.0 mi South 11.5 mph - N/A   Clear
2:55 AM 63.3 °F 51.4 °F 65% 30.02 in 10.0 mi South 10.4 mph - N/A   Clear
3:15 AM 62.8 °F 51.3 °F 66% 30.02 in 10.0 mi South 10.4 mph - N/A   Clear
3:35 AM 62.4 °F 51.1 °F 66% 30.01 in 10.0 mi South 11.5 mph - N/A   Clear
3:55 AM 62.2 °F 50.9 °F 66% 30.01 in 10.0 mi South 10.4 mph - N/A   Clear
4:15 AM 62.2 °F 50.9 °F 66% 30.01 in 10.0 mi South 12.7 mph - N/A   Clear
4:35 AM 62.2 °F 51.1 °F 67% 30.01 in 10.0 mi SSW 11.5 mph 17.3 mph N/A   Clear
4:55 AM 62.1 °F 51.3 °F 68% 30.01 in 10.0 mi South 11.5 mph - N/A   Clear
5:15 AM 62.1 °F 51.4 °F 68% 30.01 in 10.0 mi South 11.5 mph - N/A   Clear
5:35 AM 61.7 °F 51.4 °F 69% 30.01 in 10.0 mi South 12.7 mph 17.3 mph N/A   Clear
5:55 AM 61.7 °F 51.8 °F 70% 30.01 in 10.0 mi South 12.7 mph - N/A   Clear
6:15 AM 61.7 °F 52.0 °F 70% 30.02 in 10.0 mi South 13.8 mph 18.4 mph N/A   Clear
6:55 AM 61.7 °F 52.2 °F 71% 30.02 in 10.0 mi South 11.5 mph - N/A   Clear
7:15 AM 61.3 °F 52.2 °F 72% 30.03 in 10.0 mi South 11.5 mph - N/A   Clear
7:35 AM 61.3 °F 52.2 °F 72% 30.03 in 10.0 mi South 9.2 mph - N/A   Clear
7:55 AM 61.3 °F 52.2 °F 72% 30.04 in 10.0 mi South 10.4 mph - N/A   Clear
8:15 AM 62.1 °F 52.3 °F 70% 30.05 in 10.0 mi South 8.1 mph - N/A   Clear
8:35 AM 63.5 °F 52.7 °F 68% 30.06 in 10.0 mi South 9.2 mph - N/A   Clear
8:55 AM 64.0 °F 52.7 °F 67% 30.06 in 10.0 mi South 6.9 mph - N/A   Clear
9:15 AM 65.5 °F 52.7 °F 63% 30.06 in 10.0 mi South 9.2 mph - N/A   Clear
9:35 AM 68.5 °F 51.8 °F 55% 30.06 in 10.0 mi South 11.5 mph - N/A   Clear
9:55 AM 69.6 °F 50.7 °F 51% 30.06 in 10.0 mi South 9.2 mph - N/A   Clear
10:35 AM 74.1 °F 47.3 °F 38% 30.05 in 10.0 mi SSW 15.0 mph 18.4 mph N/A   Clear
10:55 AM 75.6 °F 46.2 °F 35% 30.04 in 10.0 mi South 12.7 mph 18.4 mph N/A   Clear
11:15 AM 76.6 °F 45.9 °F 34% 30.04 in 10.0 mi SSW 12.7 mph - N/A   Clear
11:35 AM 77.9 °F 45.3 °F 31% 30.03 in 10.0 mi South 12.7 mph - N/A   Clear
11:55 AM 78.6 °F 45.0 °F 30% 30.03 in 10.0 mi South 13.8 mph 20.7 mph N/A   Clear
12:15 PM 79.9 °F 44.1 °F 28% 30.01 in 10.0 mi SSW 12.7 mph 19.6 mph N/A   Clear
12:35 PM 81.5 °F 41.9 °F 25% 30.00 in 10.0 mi SSW 11.5 mph - N/A   Clear
12:55 PM 82.6 °F 40.3 °F 22% 29.99 in 10.0 mi SSW 12.7 mph 19.6 mph N/A   Clear
1:15 PM 83.3 °F 40.5 °F 22% 29.98 in 10.0 mi SSW 12.7 mph - N/A   Clear
1:35 PM 83.7 °F 40.3 °F 21% 29.96 in 10.0 mi SW 16.1 mph 20.7 mph N/A   Clear
1:55 PM 84.0 °F 40.5 °F 21% 29.96 in 10.0 mi SSW 11.5 mph 16.1 mph N/A   Clear
2:15 PM 84.6 °F 39.9 °F 21% 29.95 in 10.0 mi SSW 13.8 mph 18.4 mph N/A   Clear
2:35 PM 84.9 °F 39.2 °F 20% 29.94 in 10.0 mi SSW 11.5 mph 16.1 mph N/A   Clear
2:55 PM 85.5 °F 37.9 °F 19% 29.94 in 10.0 mi South 11.5 mph 20.7 mph N/A   Clear
3:15 PM 86.0 °F 38.3 °F 18% 29.93 in 10.0 mi SW 10.4 mph - N/A   Clear
3:35 PM 86.0 °F 36.9 °F 17% 29.93 in 10.0 mi SSW 11.5 mph 16.1 mph N/A   Clear
3:55 PM 85.3 °F 35.8 °F 17% 29.93 in 10.0 mi SSW 9.2 mph - N/A   Clear
4:15 PM 84.7 °F 35.8 °F 17% 29.93 in 10.0 mi South 12.7 mph - N/A   Clear
4:35 PM 83.3 °F 40.5 °F 22% 29.93 in 10.0 mi South 16.1 mph 21.9 mph N/A   Clear
4:55 PM 81.5 °F 42.3 °F 25% 29.93 in 10.0 mi South 15.0 mph 19.6 mph N/A   Clear
5:15 PM 80.4 °F 42.4 °F 26% 29.93 in 10.0 mi South 15.0 mph - N/A   Clear
5:35 PM 79.5 °F 42.6 °F 27% 29.93 in 10.0 mi SSE 13.8 mph - N/A   Clear
5:55 PM 78.4 °F 43.5 °F 29% 29.93 in 10.0 mi SSE 12.7 mph - N/A   Clear
6:15 PM 77.4 °F 44.6 °F 31% 29.93 in 10.0 mi SSE 13.8 mph - N/A   Clear
6:35 PM 76.6 °F 45.0 °F 32% 29.93 in 10.0 mi SSE 13.8 mph 21.9 mph N/A   Clear
6:55 PM 76.1 °F 45.7 °F 34% 29.94 in 10.0 mi South 16.1 mph - N/A   Clear
7:15 PM 75.7 °F 46.8 °F 36% 29.94 in 10.0 mi SSE 15.0 mph 19.6 mph N/A   Clear
7:35 PM 75.0 °F 47.3 °F 37% 29.94 in 10.0 mi South 17.3 mph 21.9 mph N/A   Clear
7:55 PM 74.5 °F 47.5 °F 38% 29.96 in 10.0 mi South 15.0 mph 18.4 mph N/A   Clear
8:15 PM 73.9 °F 48.2 °F 40% 29.96 in 10.0 mi South 16.1 mph 23.0 mph N/A   Clear
8:35 PM 73.6 °F 49.5 °F 43% 29.96 in 10.0 mi South 16.1 mph 21.9 mph N/A   Clear
8:55 PM 73.4 °F 50.9 °F 45% 29.96 in 10.0 mi South 16.1 mph 23.0 mph N/A   Clear
9:15 PM 73.0 °F 51.8 °F 47% 29.96 in 10.0 mi South 15.0 mph 21.9 mph N/A   Clear
9:35 PM 72.1 °F 52.2 °F 49% 29.97 in 10.0 mi South 11.5 mph - N/A   Clear
9:55 PM 71.2 °F 52.3 °F 51% 29.96 in 10.0 mi South 12.7 mph - N/A   Clear
10:15 PM 70.7 °F 52.7 °F 53% 29.97 in 10.0 mi South 13.8 mph - N/A   Clear
10:35 PM 70.7 °F 53.2 °F 54% 29.97 in 10.0 mi South 11.5 mph - N/A   Clear
10:55 PM 70.2 °F 53.8 °F 56% 29.97 in 10.0 mi South 12.7 mph 17.3 mph N/A   Clear
11:15 PM 69.8 °F 54.0 °F 57% 29.97 in 10.0 mi South 12.7 mph 18.4 mph N/A   Clear
11:35 PM 69.4 °F 54.0 °F 58% 29.97 in 10.0 mi South 12.7 mph - N/A   Clear
11:55 PM 69.1 °F 53.8 °F 58% 29.97 in 10.0 mi South 10.4 mph 17.3 mph N/A   Clear